TimeCST,TemperatureF,Dew PointF,Humidity,Sea Level PressureIn,VisibilityMPH,Wind Direction,Wind SpeedMPH,Gust SpeedMPH,PrecipitationIn,Events,Conditions,WindDirDegrees,DateUTC
12:35 AM,19.4,15.8,86,30.17,8.0,NNE,6.9,-,0.00,Snow,Light Snow,20,2013-01-01 06:35:00
12:53 AM,19.0,15.1,85,30.21,9.0,North,9.2,-,0.00,Snow,Light Snow,10,2013-01-01 06:53:00
1:53 AM,18.0,12.9,81,30.23,9.0,North,8.1,-,0.00,,Overcast,360,2013-01-01 07:53:00
2:53 AM,18.0,10.9,74,30.25,10.0,NNE,10.4,-,N/A,,Overcast,20,2013-01-01 08:53:00
3:53 AM,16.0,9.0,74,30.25,10.0,North,9.2,-,N/A,,Overcast,360,2013-01-01 09:53:00
4:53 AM,14.0,7.0,74,30.24,10.0,North,8.1,-,N/A,,Partly Cloudy,10,2013-01-01 10:53:00
5:53 AM,12.2,5.0,73,30.20,10.0,North,8.1,-,N/A,,Partly Cloudy,360,2013-01-01 11:53:00
6:53 AM,10.4,3.2,73,30.23,10.0,North,6.9,-,N/A,,Partly Cloudy,360,2013-01-01 12:53:00
7:53 AM,10.0,3.9,76,30.32,10.0,North,4.6,-,N/A,,Mostly Cloudy,10,2013-01-01 13:53:00
8:53 AM,12.9,5.0,71,30.32,10.0,North,9.2,-,N/A,,Mostly Cloudy,10,2013-01-01 14:53:00
9:53 AM,15.1,6.1,68,30.34,10.0,NNE,5.8,-,N/A,,Mostly Cloudy,20,2013-01-01 15:53:00
10:53 AM,16.0,5.0,62,30.35,10.0,North,5.8,-,N/A,,Mostly Cloudy,10,2013-01-01 16:53:00
11:53 AM,18.0,5.0,57,30.33,10.0,Calm,Calm,-,N/A,,Scattered Clouds,0,2013-01-01 17:53:00
12:53 PM,18.0,5.0,57,30.32,10.0,NNW,3.5,-,N/A,,Overcast,330,2013-01-01 18:53:00
1:53 PM,19.9,5.0,52,30.30,10.0,NNW,5.8,-,N/A,,Overcast,340,2013-01-01 19:53:00
2:53 PM,21.9,8.1,55,30.31,10.0,NW,3.5,-,N/A,,Overcast,310,2013-01-01 20:53:00
3:53 PM,21.9,6.1,51,30.30,10.0,NNW,5.8,-,N/A,,Mostly Cloudy,330,2013-01-01 21:53:00
4:53 PM,19.9,3.9,50,30.30,10.0,Calm,Calm,-,N/A,,Scattered Clouds,0,2013-01-01 22:53:00
5:53 PM,18.0,1.9,50,30.30,10.0,WNW,3.5,-,N/A,,Clear,290,2013-01-01 23:53:00
6:53 PM,17.1,3.9,56,30.29,10.0,West,4.6,-,N/A,,Clear,280,2013-01-02 00:53:00
7:53 PM,15.1,3.0,59,30.30,10.0,West,5.8,-,N/A,,Clear,260,2013-01-02 01:53:00
8:53 PM,12.0,1.9,64,30.29,10.0,SSW,5.8,-,N/A,,Clear,210,2013-01-02 02:53:00
9:53 PM,12.0,3.0,67,30.29,10.0,SSW,6.9,-,N/A,,Clear,200,2013-01-02 03:53:00
10:53 PM,12.9,3.0,65,30.27,10.0,SSW,5.8,-,N/A,,Clear,210,2013-01-02 04:53:00
11:53 PM,14.0,3.9,64,30.27,10.0,SSW,9.2,-,N/A,,Clear,210,2013-01-02 05:53:00